Date String (YYYY-MM-DD hh:mm:ss) UTC,Instrument flags,absolute air pressure of the measurement (hPa),sample flow rate (lpm),inlet stack bypass flow (lpm),air temperature of the measurement (°C),ambient temperature measured by the external sensor (°C),aerosol sample conditioner tube jacket temperature (°C),OPC LED temperature (°C),internal box temperature (°C),relative humidity of the measurement (%),span deviation,mass concentration of particles derived from Lorenz-Mie calculation of OPC scattering (μg/m³),mass concentration of particles derived from Lorenz-Mie calculation of OPC scattering (μg/m³),mass concentration of particles derived from Lorenz-Mie calculation of OPC scattering (μg/m³)
DateTimeUTC,F1_M11,P_M11,Q1_M11,Q2_M11,T1_M11,T2_M11,T3_M11,T4_M11,T5_M11,U1_M11,ZSPAN_M11,X2_M11,X0_M11,X1_M11
2024-06-12 16:00:00,SystemResetWarning,0830.5,5.00,000.00,029.5,029.0,000.0,037.6,031.3,018.7,0000.0,0005.14,0017.23,0004.29
2024-06-12 16:01:00,SystemResetWarning,0830.4,5.00,000.00,029.6,029.1,000.0,037.7,031.4,020.1,0000.0,0005.15,0017.80,0004.29
2024-06-12 16:02:00,SystemResetWarning,0830.6,5.00,000.00,029.7,029.2,000.0,037.7,031.5,020.1,0000.0,0005.21,0018.15,0004.31
2024-06-12 16:03:00,SystemResetWarning,0830.5,4.99,000.00,029.7,028.9,000.0,037.8,031.3,019.8,0000.0,0005.24,0017.28,0004.32
2024-06-12 16:04:00,SystemResetWarning,0830.4,5.00,000.00,029.5,026.9,000.0,037.9,030.4,018.5,0000.0,0005.24,0017.27,0004.34
2024-06-12 16:05:00,SystemResetWarning,0830.3,5.02,000.00,029.1,026.2,000.0,037.9,030.0,019.2,0000.0,0005.26,0017.41,0004.38
2024-06-12 16:06:00,SystemResetWarning,0830.4,5.00,000.00,029.1,026.7,000.0,037.8,030.2,019.5,0000.0,0005.27,0018.61,0004.39
2024-06-12 16:07:00,SystemResetWarning,0830.3,4.99,000.00,029.1,027.1,000.0,037.7,030.4,020.4,0000.0,0005.28,0017.88,0004.43
2024-06-12 16:08:00,SystemResetWarning,0830.4,5.00,000.00,029.1,027.5,000.0,037.6,030.6,020.4,0000.0,0005.28,0016.86,0004.46
2024-06-12 16:09:00,SystemResetWarning,0830.3,5.00,000.00,029.2,027.9,000.0,037.6,030.8,020.3,0000.0,0005.29,0017.06,0004.49
2024-06-12 16:10:00,SystemResetWarning,0830.4,5.01,000.00,029.3,028.2,000.0,037.6,031.0,021.0,0000.0,0005.37,0016.50,0004.53
2024-06-12 16:11:00,SystemResetWarning,0830.4,5.00,000.00,029.3,028.4,000.0,037.6,031.1,020.8,0000.0,0005.40,0016.97,0004.57
2024-06-12 16:12:00,SystemResetWarning,0830.4,4.99,000.00,029.4,028.6,000.0,037.6,031.2,020.7,0000.0,0005.49,0016.65,0004.63
2024-06-12 16:13:00,SystemResetWarning,0830.4,4.99,000.00,029.5,028.8,000.0,037.6,031.3,020.4,0000.0,0005.55,0016.92,0004.66
2024-06-12 16:14:00,SystemResetWarning,0830.4,4.99,000.00,029.6,029.0,000.0,037.6,031.4,020.3,0000.0,0005.57,0016.61,0004.69
2024-06-12 16:15:00,SystemResetWarning,0830.4,5.01,000.00,029.6,029.1,000.0,037.7,031.5,021.1,0000.0,0005.58,0016.62,0004.72
2024-06-12 16:16:00,SystemResetWarning,0830.4,5.00,000.00,029.6,028.4,000.0,037.8,031.1,021.0,0000.0,0005.61,0015.97,0004.75
2024-06-12 16:17:00,SystemResetWarning,0830.3,5.00,000.00,029.3,026.4,000.0,037.8,030.0,019.6,0000.0,0005.61,0015.23,0004.74
2024-06-12 16:18:00,SystemResetWarning,0830.3,5.02,000.00,029.0,026.2,000.0,037.8,029.9,018.5,0000.0,0005.62,0014.38,0004.74
2024-06-12 16:19:00,SystemResetWarning,0830.4,4.99,000.00,029.0,026.7,000.0,037.7,030.2,017.7,0000.0,0005.59,0014.78,0004.72
2024-06-12 16:20:00,SystemResetWarning,0830.4,5.00,000.00,029.0,027.1,000.0,037.6,030.4,018.0,0000.0,0005.54,0014.83,0004.68
2024-06-12 16:21:00,SystemResetWarning,0830.4,5.00,000.00,029.1,027.5,000.0,037.5,030.6,018.0,0000.0,0005.49,0014.79,0004.65
2024-06-12 16:22:00,SystemResetWarning,0830.4,5.00,000.00,029.1,027.9,000.0,037.5,030.8,017.6,0000.0,0005.44,0015.19,0004.61
2024-06-12 16:23:00,SystemResetWarning,0830.3,5.00,000.00,029.2,028.1,000.0,037.5,030.9,017.9,0000.0,0005.36,0014.77,0004.56
2024-06-12 16:24:00,SystemResetWarning,0830.3,5.00,000.00,029.3,028.4,000.0,037.5,031.0,019.0,0000.0,0005.26,0013.82,0004.51
2024-06-12 16:25:00,SystemResetWarning,0830.3,5.00,000.00,029.3,028.6,000.0,037.5,031.1,018.6,0000.0,0005.19,0013.51,0004.48
2024-06-12 16:26:00,SystemResetWarning,0830.3,5.00,000.00,029.4,028.8,000.0,037.5,031.2,017.6,0000.0,0005.17,0014.00,0004.44
2024-06-12 16:27:00,SystemResetWarning,0830.2,5.00,000.00,029.5,029.0,000.0,037.6,031.3,018.1,0000.0,0005.09,0014.41,0004.39
2024-06-12 16:28:00,SystemResetWarning,0830.2,4.99,000.00,029.6,029.1,000.0,037.6,031.4,019.2,0000.0,0005.08,0014.00,0004.38
2024-06-12 16:29:00,SystemResetWarning,0830.2,4.99,000.00,029.5,028.0,000.0,037.7,030.8,018.8,0000.0,0005.08,0014.01,0004.38
2024-06-12 16:30:00,SystemResetWarning,0830.1,5.01,000.00,029.1,026.1,000.0,037.7,029.9,020.1,0000.0,0005.12,0014.06,0004.40
2024-06-12 16:31:00,SystemResetWarning,0830.2,5.01,000.00,028.9,026.2,000.0,037.7,029.8,019.4,0000.0,0005.16,0015.13,0004.41
2024-06-12 16:32:00,SystemResetWarning,0830.2,4.99,000.00,028.9,026.7,000.0,037.6,030.1,019.6,0000.0,0005.21,0016.57,0004.43
2024-06-12 16:33:00,SystemResetWarning,0830.3,5.00,000.00,028.9,027.1,000.0,037.5,030.3,018.7,0000.0,0005.27,0016.51,0004.44
2024-06-12 16:34:00,SystemResetWarning,0830.3,5.01,000.00,029.0,027.5,000.0,037.5,030.6,018.7,0000.0,0005.32,0017.82,0004.45
2024-06-12 16:35:00,SystemResetWarning,0830.3,5.01,000.00,029.1,027.9,000.0,037.4,030.7,019.3,0000.0,0005.37,0018.70,0004.47
2024-06-12 16:36:00,SystemResetWarning,0830.2,5.00,000.00,029.1,028.1,000.0,037.4,030.9,018.4,0000.0,0005.46,0020.05,0004.49
2024-06-12 16:37:00,SystemResetWarning,0830.2,4.99,000.00,029.2,028.4,000.0,037.4,031.0,018.0,0000.0,0005.54,0021.25,0004.51
2024-06-12 16:38:00,SystemResetWarning,0830.2,5.00,000.00,029.3,028.6,000.0,037.5,031.1,018.0,0000.0,0005.54,0021.24,0004.51
2024-06-12 16:39:00,SystemResetWarning,0830.2,5.00,000.00,029.4,028.8,000.0,037.5,031.2,017.4,0000.0,0005.53,0021.52,0004.48
2024-06-12 16:40:00,SystemResetWarning,0830.2,5.00,000.00,029.5,029.0,000.0,037.5,031.3,017.5,0000.0,0005.52,0022.12,0004.43
2024-06-12 16:41:00,SystemResetWarning,0830.1,5.00,000.00,029.6,029.0,000.0,037.6,031.3,018.4,0000.0,0005.49,0022.18,0004.39
2024-06-12 16:42:00,SystemResetWarning,0830.1,4.99,000.00,029.4,027.6,000.0,037.7,030.6,018.4,0000.0,0005.54,0022.66,0004.36
2024-06-12 16:43:00,SystemResetWarning,0830.0,5.01,000.00,029.1,026.1,000.0,037.7,029.8,019.0,0000.0,0005.52,0023.01,0004.33
2024-06-12 16:44:00,SystemResetWarning,0830.1,5.02,000.00,028.9,026.4,000.0,037.7,029.9,018.8,0000.0,0005.54,0022.94,0004.30
2024-06-12 16:45:00,SystemResetWarning,0830.1,4.99,000.00,028.9,026.8,000.0,037.5,030.2,016.6,0000.0,0005.58,0022.58,0004.28
2024-06-12 16:46:00,SystemResetWarning,0830.1,4.99,000.00,029.0,027.2,000.0,037.4,030.4,016.9,0000.0,0005.53,0021.37,0004.25
2024-06-12 16:47:00,SystemResetWarning,0830.1,5.00,000.00,029.0,027.6,000.0,037.4,030.6,017.0,0000.0,0005.43,0020.67,0004.21
2024-06-12 16:48:00,SystemResetWarning,0830.1,5.01,000.00,029.1,027.9,000.0,037.4,030.8,016.7,0000.0,0005.29,0019.00,0004.16
2024-06-12 16:49:00,SystemResetWarning,0830.1,5.00,000.00,029.2,028.2,000.0,037.4,030.9,017.1,0000.0,0005.25,0018.39,0004.13
2024-06-12 16:50:00,SystemResetWarning,0830.1,5.00,000.00,029.3,028.5,000.0,037.4,031.0,018.0,0000.0,0005.24,0018.71,0004.11
2024-06-12 16:51:00,SystemResetWarning,0830.1,5.00,000.00,029.3,028.7,000.0,037.4,031.2,017.6,0000.0,0005.21,0019.28,0004.11
2024-06-12 16:52:00,SystemResetWarning,0830.1,5.00,000.00,029.4,028.9,000.0,037.5,031.3,017.7,0000.0,0005.25,0019.87,0004.11
2024-06-12 16:53:00,SystemResetWarning,0830.1,5.00,000.00,029.5,029.0,000.0,037.5,031.3,016.4,0000.0,0005.24,0019.12,0004.11
2024-06-12 16:54:00,SystemResetWarning,0830.1,4.98,000.00,029.5,028.1,000.0,037.6,030.8,016.6,0000.0,0005.17,0016.39,0004.11
2024-06-12 16:55:00,SystemResetWarning,0830.0,5.00,000.00,029.1,026.3,000.0,037.6,029.9,015.7,0000.0,0005.11,0015.80,0004.09
2024-06-12 16:56:00,SystemResetWarning,0830.0,5.01,000.00,028.9,026.3,000.0,037.6,029.9,015.7,0000.0,0004.96,0014.25,0004.07
2024-06-12 16:57:00,SystemResetWarning,0830.0,4.99,000.00,028.9,026.8,000.0,037.5,030.1,015.4,0000.0,0004.91,0013.88,0004.06
2024-06-12 16:58:00,SystemResetWarning,0830.0,5.00,000.00,028.9,027.2,000.0,037.4,030.4,016.1,0000.0,0004.89,0013.18,0004.06
2024-06-12 16:59:00,SystemResetWarning,0830.0,5.01,000.00,029.0,027.6,000.0,037.4,030.6,016.8,0000.0,0004.89,0013.60,0004.06
